Location: Dompnac
(44.5644°N, 4.1026°E)
Time: 10:10:20
(UTC+00:00)

Meteor 1-22 Rocket - Pass Details

Date: 19 September 2020
Orbit: 786 x 941 km, 81.2° (Epoch: 29 October)

Event Time Altitude Azimuth Distance (km) Brightness Sun altitude
Exits shadow 20:34:27 78° 227° (SW) 928 4.3 -29.0°
Maximum altitude 20:34:48 83° 280° (W) 918 4.3 -29.1°
Drops below altitude 10° 20:40:52 10° 9° (N) 2,638 7.0 -29.9°
Sets 20:43:24 0° 11° (N) 3,598 7.8 -30.3°
